<?xml version="1.0" encoding="UTF-8" standalone="no" ?>
<gpx xmlns="http://www.topografix.com/GPX/1/1" xmlns:xsi="http://www.w3.org/2001/XMLSchema-instance" xsi:schemaLocation="http://www.topografix.com/GPX/1/1 http://www.topografix.com/GPX/1/1/gpx.xsd" version="1.1" creator="VisuGPX - https://www.visugpx.com">
  <metadata>
    <name>10867738-Chevauchées 2022 J2 sud vienne</name>
  </metadata>
  <trk>
    <name><![CDATA[10867738-Chevauchées 2022 J2 sud vienne]]></name>
    <trkseg>
      <trkpt lat="47.22433" lon="0.12669">
        <ele>33</ele>
        <time>2022-01-07T19:16:02Z</time>
      </trkpt>
      <trkpt lat="47.22384" lon="0.12736">
        <ele>33</ele>
        <time>2022-01-07T19:16:56Z</time>
      </trkpt>
      <trkpt lat="47.22283" lon="0.12563">
        <ele>30</ele>
        <time>2022-01-07T19:19:00Z</time>
      </trkpt>
      <trkpt lat="47.22451" lon="0.12273">
        <ele>34</ele>
        <time>2022-01-07T19:22:27Z</time>
      </trkpt>
      <trkpt lat="47.22234" lon="0.12003">
        <ele>31</ele>
        <time>2022-01-07T19:26:14Z</time>
      </trkpt>
      <trkpt lat="47.22075" lon="0.11963">
        <ele>32</ele>
        <time>2022-01-07T19:28:23Z</time>
      </trkpt>
      <trkpt lat="47.22086" lon="0.11938">
        <ele>32</ele>
        <time>2022-01-07T19:28:40Z</time>
      </trkpt>
      <trkpt lat="47.21873" lon="0.11537">
        <ele>31</ele>
        <time>2022-01-07T19:33:17Z</time>
      </trkpt>
      <trkpt lat="47.22077" lon="0.1134">
        <ele>34</ele>
        <time>2022-01-07T19:36:32Z</time>
      </trkpt>
      <trkpt lat="47.21923" lon="0.11062">
        <ele>32</ele>
        <time>2022-01-07T19:39:47Z</time>
      </trkpt>
      <trkpt lat="47.2179" lon="0.109">
        <ele>32</ele>
        <time>2022-01-07T19:42:05Z</time>
      </trkpt>
      <trkpt lat="47.21803" lon="0.10862">
        <ele>31</ele>
        <time>2022-01-07T19:42:28Z</time>
      </trkpt>
      <trkpt lat="47.21774" lon="0.10788">
        <ele>31</ele>
        <time>2022-01-07T19:43:15Z</time>
      </trkpt>
      <trkpt lat="47.21719" lon="0.10735">
        <ele>31</ele>
        <time>2022-01-07T19:44:07Z</time>
      </trkpt>
      <trkpt lat="47.21673" lon="0.10749">
        <ele>31</ele>
        <time>2022-01-07T19:44:45Z</time>
      </trkpt>
      <trkpt lat="47.21552" lon="0.10933">
        <ele>33</ele>
        <time>2022-01-07T19:47:04Z</time>
      </trkpt>
      <trkpt lat="47.21534" lon="0.10976">
        <ele>33</ele>
        <time>2022-01-07T19:47:32Z</time>
      </trkpt>
      <trkpt lat="47.21506" lon="0.10998">
        <ele>31</ele>
        <time>2022-01-07T19:47:57Z</time>
      </trkpt>
      <trkpt lat="47.21506" lon="0.10953">
        <ele>31</ele>
        <time>2022-01-07T19:48:22Z</time>
      </trkpt>
      <trkpt lat="47.21492" lon="0.10769">
        <ele>35</ele>
        <time>2022-01-07T19:50:02Z</time>
      </trkpt>
      <trkpt lat="47.21497" lon="0.10727">
        <ele>36</ele>
        <time>2022-01-07T19:50:26Z</time>
      </trkpt>
      <trkpt lat="47.21452" lon="0.1019">
        <ele>37</ele>
        <time>2022-01-07T19:55:20Z</time>
      </trkpt>
      <trkpt lat="47.2142" lon="0.09874">
        <ele>35</ele>
        <time>2022-01-07T19:58:14Z</time>
      </trkpt>
      <trkpt lat="47.21418" lon="0.09733">
        <ele>36</ele>
        <time>2022-01-07T19:59:30Z</time>
      </trkpt>
      <trkpt lat="47.21423" lon="0.09694">
        <ele>37</ele>
        <time>2022-01-07T19:59:52Z</time>
      </trkpt>
      <trkpt lat="47.21418" lon="0.09636">
        <ele>39</ele>
        <time>2022-01-07T20:00:24Z</time>
      </trkpt>
      <trkpt lat="47.21411" lon="0.09501">
        <ele>41</ele>
        <time>2022-01-07T20:01:37Z</time>
      </trkpt>
      <trkpt lat="47.21372" lon="0.09345">
        <ele>34</ele>
        <time>2022-01-07T20:03:08Z</time>
      </trkpt>
      <trkpt lat="47.21371" lon="0.09268">
        <ele>32</ele>
        <time>2022-01-07T20:03:50Z</time>
      </trkpt>
      <trkpt lat="47.21381" lon="0.09211">
        <ele>34</ele>
        <time>2022-01-07T20:04:22Z</time>
      </trkpt>
      <trkpt lat="47.21376" lon="0.09098">
        <ele>37</ele>
        <time>2022-01-07T20:05:23Z</time>
      </trkpt>
      <trkpt lat="47.21383" lon="0.0899">
        <ele>38</ele>
        <time>2022-01-07T20:06:22Z</time>
      </trkpt>
      <trkpt lat="47.21371" lon="0.08907">
        <ele>35</ele>
        <time>2022-01-07T20:07:08Z</time>
      </trkpt>
      <trkpt lat="47.21326" lon="0.08784">
        <ele>36</ele>
        <time>2022-01-07T20:08:24Z</time>
      </trkpt>
      <trkpt lat="47.2127" lon="0.08486">
        <ele>35</ele>
        <time>2022-01-07T20:11:12Z</time>
      </trkpt>
      <trkpt lat="47.21268" lon="0.08428">
        <ele>35</ele>
        <time>2022-01-07T20:11:44Z</time>
      </trkpt>
      <trkpt lat="47.21281" lon="0.08377">
        <ele>36</ele>
        <time>2022-01-07T20:12:14Z</time>
      </trkpt>
      <trkpt lat="47.20919" lon="0.07819">
        <ele>36</ele>
        <time>2022-01-07T20:19:13Z</time>
      </trkpt>
      <trkpt lat="47.20924" lon="0.07808">
        <ele>37</ele>
        <time>2022-01-07T20:19:21Z</time>
      </trkpt>
      <trkpt lat="47.20935" lon="0.07801">
        <ele>36</ele>
        <time>2022-01-07T20:19:30Z</time>
      </trkpt>
      <trkpt lat="47.2095" lon="0.07785">
        <ele>37</ele>
        <time>2022-01-07T20:19:45Z</time>
      </trkpt>
      <trkpt lat="47.2097" lon="0.07771">
        <ele>36</ele>
        <time>2022-01-07T20:20:03Z</time>
      </trkpt>
      <trkpt lat="47.21012" lon="0.07701">
        <ele>36</ele>
        <time>2022-01-07T20:20:54Z</time>
      </trkpt>
      <trkpt lat="47.21059" lon="0.07644">
        <ele>34</ele>
        <time>2022-01-07T20:21:42Z</time>
      </trkpt>
      <trkpt lat="47.21068" lon="0.07668">
        <ele>31</ele>
        <time>2022-01-07T20:21:57Z</time>
      </trkpt>
      <trkpt lat="47.2109" lon="0.07648">
        <ele>30</ele>
        <time>2022-01-07T20:22:18Z</time>
      </trkpt>
      <trkpt lat="47.21107" lon="0.07623">
        <ele>31</ele>
        <time>2022-01-07T20:22:37Z</time>
      </trkpt>
      <trkpt lat="47.21121" lon="0.07606">
        <ele>31</ele>
        <time>2022-01-07T20:22:52Z</time>
      </trkpt>
      <trkpt lat="47.21163" lon="0.07538">
        <ele>32</ele>
        <time>2022-01-07T20:23:42Z</time>
      </trkpt>
      <trkpt lat="47.21177" lon="0.07515">
        <ele>33</ele>
        <time>2022-01-07T20:23:58Z</time>
      </trkpt>
      <trkpt lat="47.21208" lon="0.07457">
        <ele>33</ele>
        <time>2022-01-07T20:24:39Z</time>
      </trkpt>
      <trkpt lat="47.21217" lon="0.07447">
        <ele>33</ele>
        <time>2022-01-07T20:24:48Z</time>
      </trkpt>
      <trkpt lat="47.21238" lon="0.07418">
        <ele>31</ele>
        <time>2022-01-07T20:25:11Z</time>
      </trkpt>
      <trkpt lat="47.2125" lon="0.07383">
        <ele>31</ele>
        <time>2022-01-07T20:25:32Z</time>
      </trkpt>
      <trkpt lat="47.21263" lon="0.07333">
        <ele>31</ele>
        <time>2022-01-07T20:26:01Z</time>
      </trkpt>
      <trkpt lat="47.21278" lon="0.07269">
        <ele>32</ele>
        <time>2022-01-07T20:26:38Z</time>
      </trkpt>
      <trkpt lat="47.21286" lon="0.07214">
        <ele>34</ele>
        <time>2022-01-07T20:27:09Z</time>
      </trkpt>
      <trkpt lat="47.21302" lon="0.07156">
        <ele>34</ele>
        <time>2022-01-07T20:27:43Z</time>
      </trkpt>
      <trkpt lat="47.21323" lon="0.07103">
        <ele>32</ele>
        <time>2022-01-07T20:28:16Z</time>
      </trkpt>
      <trkpt lat="47.21415" lon="0.06871">
        <ele>30</ele>
        <time>2022-01-07T20:30:42Z</time>
      </trkpt>
      <trkpt lat="47.21446" lon="0.06765">
        <ele>31</ele>
        <time>2022-01-07T20:31:45Z</time>
      </trkpt>
      <trkpt lat="47.21442" lon="0.06739">
        <ele>31</ele>
        <time>2022-01-07T20:31:59Z</time>
      </trkpt>
      <trkpt lat="47.21432" lon="0.06757">
        <ele>32</ele>
        <time>2022-01-07T20:32:12Z</time>
      </trkpt>
      <trkpt lat="47.21421" lon="0.06753">
        <ele>33</ele>
        <time>2022-01-07T20:32:21Z</time>
      </trkpt>
      <trkpt lat="47.21424" lon="0.06676">
        <ele>33</ele>
        <time>2022-01-07T20:33:03Z</time>
      </trkpt>
      <trkpt lat="47.21418" lon="0.06658">
        <ele>33</ele>
        <time>2022-01-07T20:33:14Z</time>
      </trkpt>
      <trkpt lat="47.21404" lon="0.0666">
        <ele>34</ele>
        <time>2022-01-07T20:33:25Z</time>
      </trkpt>
      <trkpt lat="47.21381" lon="0.06687">
        <ele>36</ele>
        <time>2022-01-07T20:33:49Z</time>
      </trkpt>
      <trkpt lat="47.21348" lon="0.06722">
        <ele>41</ele>
        <time>2022-01-07T20:34:21Z</time>
      </trkpt>
      <trkpt lat="47.21327" lon="0.06759">
        <ele>46</ele>
        <time>2022-01-07T20:34:47Z</time>
      </trkpt>
      <trkpt lat="47.21313" lon="0.06761">
        <ele>47</ele>
        <time>2022-01-07T20:34:59Z</time>
      </trkpt>
      <trkpt lat="47.21232" lon="0.06801">
        <ele>55</ele>
        <time>2022-01-07T20:36:07Z</time>
      </trkpt>
      <trkpt lat="47.21222" lon="0.06807">
        <ele>55</ele>
        <time>2022-01-07T20:36:16Z</time>
      </trkpt>
      <trkpt lat="47.21207" lon="0.06826">
        <ele>57</ele>
        <time>2022-01-07T20:36:32Z</time>
      </trkpt>
      <trkpt lat="47.2118" lon="0.06905">
        <ele>62</ele>
        <time>2022-01-07T20:37:20Z</time>
      </trkpt>
      <trkpt lat="47.2115" lon="0.0698">
        <ele>65</ele>
        <time>2022-01-07T20:38:07Z</time>
      </trkpt>
      <trkpt lat="47.21126" lon="0.07036">
        <ele>64</ele>
        <time>2022-01-07T20:38:43Z</time>
      </trkpt>
      <trkpt lat="47.21092" lon="0.07083">
        <ele>63</ele>
        <time>2022-01-07T20:39:20Z</time>
      </trkpt>
      <trkpt lat="47.2108" lon="0.07099">
        <ele>63</ele>
        <time>2022-01-07T20:39:33Z</time>
      </trkpt>
      <trkpt lat="47.21054" lon="0.07147">
        <ele>62</ele>
        <time>2022-01-07T20:40:07Z</time>
      </trkpt>
      <trkpt lat="47.2104" lon="0.07178">
        <ele>63</ele>
        <time>2022-01-07T20:40:27Z</time>
      </trkpt>
      <trkpt lat="47.21018" lon="0.07203">
        <ele>64</ele>
        <time>2022-01-07T20:40:49Z</time>
      </trkpt>
      <trkpt lat="47.21024" lon="0.07212">
        <ele>64</ele>
        <time>2022-01-07T20:40:56Z</time>
      </trkpt>
      <trkpt lat="47.21011" lon="0.07293">
        <ele>65</ele>
        <time>2022-01-07T20:41:41Z</time>
      </trkpt>
      <trkpt lat="47.21002" lon="0.07346">
        <ele>66</ele>
        <time>2022-01-07T20:42:11Z</time>
      </trkpt>
      <trkpt lat="47.20996" lon="0.07361">
        <ele>66</ele>
        <time>2022-01-07T20:42:21Z</time>
      </trkpt>
      <trkpt lat="47.20985" lon="0.07404">
        <ele>66</ele>
        <time>2022-01-07T20:42:46Z</time>
      </trkpt>
      <trkpt lat="47.20975" lon="0.07416">
        <ele>67</ele>
        <time>2022-01-07T20:42:56Z</time>
      </trkpt>
      <trkpt lat="47.20966" lon="0.07416">
        <ele>67</ele>
        <time>2022-01-07T20:43:03Z</time>
      </trkpt>
      <trkpt lat="47.20946" lon="0.07451">
        <ele>70</ele>
        <time>2022-01-07T20:43:28Z</time>
      </trkpt>
      <trkpt lat="47.20922" lon="0.07485">
        <ele>75</ele>
        <time>2022-01-07T20:43:55Z</time>
      </trkpt>
      <trkpt lat="47.20903" lon="0.07502">
        <ele>77</ele>
        <time>2022-01-07T20:44:12Z</time>
      </trkpt>
      <trkpt lat="47.2089" lon="0.0751">
        <ele>77</ele>
        <time>2022-01-07T20:44:24Z</time>
      </trkpt>
      <trkpt lat="47.2088" lon="0.07533">
        <ele>76</ele>
        <time>2022-01-07T20:44:39Z</time>
      </trkpt>
      <trkpt lat="47.20859" lon="0.07579">
        <ele>77</ele>
        <time>2022-01-07T20:45:09Z</time>
      </trkpt>
      <trkpt lat="47.20823" lon="0.07609">
        <ele>80</ele>
        <time>2022-01-07T20:45:42Z</time>
      </trkpt>
      <trkpt lat="47.20801" lon="0.07547">
        <ele>80</ele>
        <time>2022-01-07T20:46:20Z</time>
      </trkpt>
      <trkpt lat="47.20759" lon="0.07458">
        <ele>78</ele>
        <time>2022-01-07T20:47:19Z</time>
      </trkpt>
      <trkpt lat="47.20726" lon="0.07395">
        <ele>80</ele>
        <time>2022-01-07T20:48:02Z</time>
      </trkpt>
      <trkpt lat="47.20671" lon="0.07335">
        <ele>82</ele>
        <time>2022-01-07T20:48:57Z</time>
      </trkpt>
      <trkpt lat="47.2056" lon="0.07203">
        <ele>82</ele>
        <time>2022-01-07T20:50:51Z</time>
      </trkpt>
      <trkpt lat="47.20599" lon="0.07141">
        <ele>82</ele>
        <time>2022-01-07T20:51:37Z</time>
      </trkpt>
      <trkpt lat="47.20609" lon="0.07107">
        <ele>82</ele>
        <time>2022-01-07T20:51:57Z</time>
      </trkpt>
      <trkpt lat="47.20653" lon="0.07052">
        <ele>81</ele>
        <time>2022-01-07T20:52:44Z</time>
      </trkpt>
      <trkpt lat="47.20593" lon="0.07035">
        <ele>82</ele>
        <time>2022-01-07T20:53:32Z</time>
      </trkpt>
      <trkpt lat="47.20495" lon="0.07003">
        <ele>83</ele>
        <time>2022-01-07T20:54:53Z</time>
      </trkpt>
      <trkpt lat="47.20401" lon="0.07017">
        <ele>82</ele>
        <time>2022-01-07T20:56:09Z</time>
      </trkpt>
      <trkpt lat="47.20342" lon="0.07001">
        <ele>83</ele>
        <time>2022-01-07T20:56:57Z</time>
      </trkpt>
      <trkpt lat="47.20033" lon="0.06976">
        <ele>87</ele>
        <time>2022-01-07T21:01:04Z</time>
      </trkpt>
      <trkpt lat="47.19849" lon="0.06965">
        <ele>86</ele>
        <time>2022-01-07T21:03:32Z</time>
      </trkpt>
      <trkpt lat="47.19781" lon="0.06961">
        <ele>87</ele>
        <time>2022-01-07T21:04:26Z</time>
      </trkpt>
      <trkpt lat="47.1966" lon="0.06974">
        <ele>86</ele>
        <time>2022-01-07T21:06:03Z</time>
      </trkpt>
      <trkpt lat="47.19604" lon="0.0698">
        <ele>83</ele>
        <time>2022-01-07T21:06:48Z</time>
      </trkpt>
      <trkpt lat="47.19528" lon="0.06979">
        <ele>81</ele>
        <time>2022-01-07T21:07:49Z</time>
      </trkpt>
      <trkpt lat="47.19483" lon="0.07156">
        <ele>80</ele>
        <time>2022-01-07T21:09:32Z</time>
      </trkpt>
      <trkpt lat="47.19472" lon="0.07174">
        <ele>80</ele>
        <time>2022-01-07T21:09:45Z</time>
      </trkpt>
      <trkpt lat="47.19404" lon="0.07387">
        <ele>83</ele>
        <time>2022-01-07T21:11:53Z</time>
      </trkpt>
      <trkpt lat="47.19376" lon="0.07403">
        <ele>84</ele>
        <time>2022-01-07T21:12:17Z</time>
      </trkpt>
      <trkpt lat="47.19354" lon="0.07448">
        <ele>84</ele>
        <time>2022-01-07T21:12:47Z</time>
      </trkpt>
      <trkpt lat="47.1922" lon="0.07568">
        <ele>87</ele>
        <time>2022-01-07T21:14:53Z</time>
      </trkpt>
      <trkpt lat="47.19159" lon="0.07478">
        <ele>88</ele>
        <time>2022-01-07T21:16:02Z</time>
      </trkpt>
      <trkpt lat="47.18976" lon="0.07253">
        <ele>96</ele>
        <time>2022-01-07T21:19:13Z</time>
      </trkpt>
      <trkpt lat="47.18836" lon="0.07086">
        <ele>103</ele>
        <time>2022-01-07T21:21:37Z</time>
      </trkpt>
      <trkpt lat="47.18859" lon="0.06992">
        <ele>103</ele>
        <time>2022-01-07T21:22:32Z</time>
      </trkpt>
      <trkpt lat="47.18971" lon="0.06725">
        <ele>100</ele>
        <time>2022-01-07T21:25:23Z</time>
      </trkpt>
      <trkpt lat="47.18979" lon="0.06696">
        <ele>100</ele>
        <time>2022-01-07T21:25:40Z</time>
      </trkpt>
      <trkpt lat="47.18995" lon="0.06664">
        <ele>100</ele>
        <time>2022-01-07T21:26:01Z</time>
      </trkpt>
      <trkpt lat="47.19036" lon="0.0668">
        <ele>99</ele>
        <time>2022-01-07T21:26:35Z</time>
      </trkpt>
      <trkpt lat="47.19068" lon="0.06573">
        <ele>97</ele>
        <time>2022-01-07T21:27:39Z</time>
      </trkpt>
      <trkpt lat="47.19085" lon="0.06475">
        <ele>98</ele>
        <time>2022-01-07T21:28:34Z</time>
      </trkpt>
      <trkpt lat="47.19112" lon="0.06439">
        <ele>95</ele>
        <time>2022-01-07T21:29:03Z</time>
      </trkpt>
      <trkpt lat="47.19124" lon="0.06372">
        <ele>98</ele>
        <time>2022-01-07T21:29:41Z</time>
      </trkpt>
      <trkpt lat="47.19101" lon="0.06318">
        <ele>103</ele>
        <time>2022-01-07T21:30:15Z</time>
      </trkpt>
      <trkpt lat="47.19104" lon="0.06268">
        <ele>103</ele>
        <time>2022-01-07T21:30:43Z</time>
      </trkpt>
      <trkpt lat="47.19111" lon="0.06246">
        <ele>104</ele>
        <time>2022-01-07T21:30:56Z</time>
      </trkpt>
      <trkpt lat="47.19081" lon="0.06216">
        <ele>105</ele>
        <time>2022-01-07T21:31:25Z</time>
      </trkpt>
      <trkpt lat="47.19068" lon="0.06155">
        <ele>105</ele>
        <time>2022-01-07T21:32:00Z</time>
      </trkpt>
      <trkpt lat="47.19082" lon="0.06087">
        <ele>103</ele>
        <time>2022-01-07T21:32:38Z</time>
      </trkpt>
      <trkpt lat="47.19088" lon="0.05975">
        <ele>99</ele>
        <time>2022-01-07T21:33:39Z</time>
      </trkpt>
      <trkpt lat="47.1911" lon="0.05825">
        <ele>94</ele>
        <time>2022-01-07T21:35:03Z</time>
      </trkpt>
      <trkpt lat="47.19144" lon="0.05715">
        <ele>90</ele>
        <time>2022-01-07T21:36:09Z</time>
      </trkpt>
      <trkpt lat="47.19145" lon="0.05652">
        <ele>91</ele>
        <time>2022-01-07T21:36:43Z</time>
      </trkpt>
      <trkpt lat="47.19177" lon="0.05471">
        <ele>89</ele>
        <time>2022-01-07T21:38:25Z</time>
      </trkpt>
      <trkpt lat="47.19153" lon="0.05456">
        <ele>91</ele>
        <time>2022-01-07T21:38:46Z</time>
      </trkpt>
      <trkpt lat="47.19028" lon="0.05435">
        <ele>99</ele>
        <time>2022-01-07T21:40:26Z</time>
      </trkpt>
      <trkpt lat="47.19002" lon="0.05463">
        <ele>100</ele>
        <time>2022-01-07T21:40:52Z</time>
      </trkpt>
      <trkpt lat="47.18971" lon="0.0546">
        <ele>101</ele>
        <time>2022-01-07T21:41:17Z</time>
      </trkpt>
      <trkpt lat="47.18862" lon="0.05363">
        <ele>105</ele>
        <time>2022-01-07T21:42:59Z</time>
      </trkpt>
      <trkpt lat="47.18743" lon="0.05301">
        <ele>106</ele>
        <time>2022-01-07T21:44:40Z</time>
      </trkpt>
      <trkpt lat="47.18706" lon="0.05318">
        <ele>106</ele>
        <time>2022-01-07T21:45:11Z</time>
      </trkpt>
      <trkpt lat="47.18701" lon="0.05353">
        <ele>106</ele>
        <time>2022-01-07T21:45:31Z</time>
      </trkpt>
      <trkpt lat="47.18676" lon="0.05363">
        <ele>107</ele>
        <time>2022-01-07T21:45:51Z</time>
      </trkpt>
      <trkpt lat="47.18648" lon="0.05424">
        <ele>106</ele>
        <time>2022-01-07T21:46:31Z</time>
      </trkpt>
      <trkpt lat="47.18578" lon="0.05476">
        <ele>106</ele>
        <time>2022-01-07T21:47:34Z</time>
      </trkpt>
      <trkpt lat="47.18551" lon="0.05536">
        <ele>106</ele>
        <time>2022-01-07T21:48:13Z</time>
      </trkpt>
      <trkpt lat="47.18495" lon="0.05588">
        <ele>106</ele>
        <time>2022-01-07T21:49:06Z</time>
      </trkpt>
      <trkpt lat="47.18477" lon="0.05591">
        <ele>107</ele>
        <time>2022-01-07T21:49:21Z</time>
      </trkpt>
      <trkpt lat="47.18447" lon="0.0558">
        <ele>107</ele>
        <time>2022-01-07T21:49:46Z</time>
      </trkpt>
      <trkpt lat="47.18403" lon="0.05595">
        <ele>108</ele>
        <time>2022-01-07T21:50:22Z</time>
      </trkpt>
      <trkpt lat="47.18349" lon="0.05635">
        <ele>106</ele>
        <time>2022-01-07T21:51:10Z</time>
      </trkpt>
      <trkpt lat="47.18326" lon="0.05655">
        <ele>104</ele>
        <time>2022-01-07T21:51:32Z</time>
      </trkpt>
      <trkpt lat="47.18388" lon="0.06208">
        <ele>108</ele>
        <time>2022-01-07T21:56:37Z</time>
      </trkpt>
      <trkpt lat="47.18409" lon="0.06298">
        <ele>108</ele>
        <time>2022-01-07T21:57:28Z</time>
      </trkpt>
      <trkpt lat="47.18427" lon="0.06551">
        <ele>109</ele>
        <time>2022-01-07T21:59:47Z</time>
      </trkpt>
      <trkpt lat="47.18247" lon="0.06506">
        <ele>103</ele>
        <time>2022-01-07T22:02:13Z</time>
      </trkpt>
      <trkpt lat="47.18226" lon="0.06462">
        <ele>101</ele>
        <time>2022-01-07T22:02:42Z</time>
      </trkpt>
      <trkpt lat="47.18016" lon="0.06342">
        <ele>95</ele>
        <time>2022-01-07T22:05:43Z</time>
      </trkpt>
      <trkpt lat="47.17912" lon="0.06243">
        <ele>90</ele>
        <time>2022-01-07T22:07:22Z</time>
      </trkpt>
      <trkpt lat="47.17739" lon="0.06295">
        <ele>92</ele>
        <time>2022-01-07T22:09:43Z</time>
      </trkpt>
      <trkpt lat="47.17663" lon="0.06325">
        <ele>89</ele>
        <time>2022-01-07T22:10:46Z</time>
      </trkpt>
      <trkpt lat="47.17619" lon="0.06312">
        <ele>88</ele>
        <time>2022-01-07T22:11:22Z</time>
      </trkpt>
      <trkpt lat="47.17604" lon="0.06295">
        <ele>88</ele>
        <time>2022-01-07T22:11:37Z</time>
      </trkpt>
      <trkpt lat="47.17551" lon="0.06708">
        <ele>96</ele>
        <time>2022-01-07T22:15:26Z</time>
      </trkpt>
      <trkpt lat="47.17538" lon="0.06768">
        <ele>97</ele>
        <time>2022-01-07T22:16:00Z</time>
      </trkpt>
      <trkpt lat="47.17541" lon="0.06827">
        <ele>98</ele>
        <time>2022-01-07T22:16:33Z</time>
      </trkpt>
      <trkpt lat="47.17526" lon="0.06909">
        <ele>101</ele>
        <time>2022-01-07T22:17:19Z</time>
      </trkpt>
      <trkpt lat="47.17543" lon="0.06987">
        <ele>103</ele>
        <time>2022-01-07T22:18:03Z</time>
      </trkpt>
      <trkpt lat="47.17587" lon="0.07116">
        <ele>106</ele>
        <time>2022-01-07T22:19:22Z</time>
      </trkpt>
      <trkpt lat="47.17593" lon="0.07195">
        <ele>107</ele>
        <time>2022-01-07T22:20:05Z</time>
      </trkpt>
      <trkpt lat="47.17587" lon="0.07386">
        <ele>112</ele>
        <time>2022-01-07T22:21:49Z</time>
      </trkpt>
      <trkpt lat="47.17575" lon="0.07615">
        <ele>109</ele>
        <time>2022-01-07T22:23:54Z</time>
      </trkpt>
      <trkpt lat="47.1767" lon="0.07644">
        <ele>107</ele>
        <time>2022-01-07T22:25:12Z</time>
      </trkpt>
      <trkpt lat="47.17678" lon="0.07742">
        <ele>102</ele>
        <time>2022-01-07T22:26:06Z</time>
      </trkpt>
      <trkpt lat="47.17689" lon="0.07767">
        <ele>100</ele>
        <time>2022-01-07T22:26:22Z</time>
      </trkpt>
      <trkpt lat="47.17789" lon="0.07884">
        <ele>94</ele>
        <time>2022-01-07T22:28:04Z</time>
      </trkpt>
      <trkpt lat="47.17824" lon="0.07902">
        <ele>93</ele>
        <time>2022-01-07T22:28:34Z</time>
      </trkpt>
      <trkpt lat="47.17833" lon="0.07922">
        <ele>92</ele>
        <time>2022-01-07T22:28:47Z</time>
      </trkpt>
      <trkpt lat="47.17824" lon="0.07952">
        <ele>93</ele>
        <time>2022-01-07T22:29:05Z</time>
      </trkpt>
      <trkpt lat="47.17851" lon="0.0799">
        <ele>93</ele>
        <time>2022-01-07T22:29:35Z</time>
      </trkpt>
      <trkpt lat="47.17863" lon="0.08014">
        <ele>93</ele>
        <time>2022-01-07T22:29:51Z</time>
      </trkpt>
      <trkpt lat="47.17872" lon="0.08021">
        <ele>93</ele>
        <time>2022-01-07T22:29:59Z</time>
      </trkpt>
      <trkpt lat="47.17904" lon="0.08">
        <ele>91</ele>
        <time>2022-01-07T22:30:27Z</time>
      </trkpt>
      <trkpt lat="47.17952" lon="0.0799">
        <ele>90</ele>
        <time>2022-01-07T22:31:06Z</time>
      </trkpt>
      <trkpt lat="47.18005" lon="0.07984">
        <ele>89</ele>
        <time>2022-01-07T22:31:48Z</time>
      </trkpt>
      <trkpt lat="47.18088" lon="0.07994">
        <ele>89</ele>
        <time>2022-01-07T22:32:55Z</time>
      </trkpt>
      <trkpt lat="47.18172" lon="0.07965">
        <ele>89</ele>
        <time>2022-01-07T22:34:04Z</time>
      </trkpt>
      <trkpt lat="47.18201" lon="0.07965">
        <ele>88</ele>
        <time>2022-01-07T22:34:27Z</time>
      </trkpt>
      <trkpt lat="47.1819" lon="0.08236">
        <ele>78</ele>
        <time>2022-01-07T22:36:55Z</time>
      </trkpt>
      <trkpt lat="47.18094" lon="0.08433">
        <ele>74</ele>
        <time>2022-01-07T22:39:07Z</time>
      </trkpt>
      <trkpt lat="47.18105" lon="0.08483">
        <ele>73</ele>
        <time>2022-01-07T22:39:36Z</time>
      </trkpt>
      <trkpt lat="47.18132" lon="0.08552">
        <ele>72</ele>
        <time>2022-01-07T22:40:19Z</time>
      </trkpt>
      <trkpt lat="47.18172" lon="0.08638">
        <ele>71</ele>
        <time>2022-01-07T22:41:16Z</time>
      </trkpt>
      <trkpt lat="47.18186" lon="0.08713">
        <ele>71</ele>
        <time>2022-01-07T22:41:58Z</time>
      </trkpt>
      <trkpt lat="47.1818" lon="0.0877">
        <ele>70</ele>
        <time>2022-01-07T22:42:29Z</time>
      </trkpt>
      <trkpt lat="47.18157" lon="0.08798">
        <ele>70</ele>
        <time>2022-01-07T22:42:53Z</time>
      </trkpt>
      <trkpt lat="47.18227" lon="0.0887">
        <ele>68</ele>
        <time>2022-01-07T22:44:02Z</time>
      </trkpt>
      <trkpt lat="47.18267" lon="0.08863">
        <ele>68</ele>
        <time>2022-01-07T22:44:34Z</time>
      </trkpt>
      <trkpt lat="47.18316" lon="0.08937">
        <ele>70</ele>
        <time>2022-01-07T22:45:30Z</time>
      </trkpt>
      <trkpt lat="47.18328" lon="0.0907">
        <ele>67</ele>
        <time>2022-01-07T22:46:43Z</time>
      </trkpt>
      <trkpt lat="47.18328" lon="0.09106">
        <ele>67</ele>
        <time>2022-01-07T22:47:03Z</time>
      </trkpt>
      <trkpt lat="47.18337" lon="0.0913">
        <ele>66</ele>
        <time>2022-01-07T22:47:18Z</time>
      </trkpt>
      <trkpt lat="47.18349" lon="0.09125">
        <ele>67</ele>
        <time>2022-01-07T22:47:28Z</time>
      </trkpt>
      <trkpt lat="47.18348" lon="0.09114">
        <ele>67</ele>
        <time>2022-01-07T22:47:34Z</time>
      </trkpt>
      <trkpt lat="47.18434" lon="0.09048">
        <ele>73</ele>
        <time>2022-01-07T22:48:51Z</time>
      </trkpt>
      <trkpt lat="47.18444" lon="0.09034">
        <ele>73</ele>
        <time>2022-01-07T22:49:02Z</time>
      </trkpt>
      <trkpt lat="47.18469" lon="0.08989">
        <ele>74</ele>
        <time>2022-01-07T22:49:34Z</time>
      </trkpt>
      <trkpt lat="47.18478" lon="0.0895">
        <ele>75</ele>
        <time>2022-01-07T22:49:56Z</time>
      </trkpt>
      <trkpt lat="47.18479" lon="0.08924">
        <ele>76</ele>
        <time>2022-01-07T22:50:11Z</time>
      </trkpt>
      <trkpt lat="47.18474" lon="0.08896">
        <ele>76</ele>
        <time>2022-01-07T22:50:26Z</time>
      </trkpt>
      <trkpt lat="47.18804" lon="0.09">
        <ele>80</ele>
        <time>2022-01-07T22:54:57Z</time>
      </trkpt>
      <trkpt lat="47.18877" lon="0.08831">
        <ele>82</ele>
        <time>2022-01-07T22:56:46Z</time>
      </trkpt>
      <trkpt lat="47.18982" lon="0.09016">
        <ele>82</ele>
        <time>2022-01-07T22:58:57Z</time>
      </trkpt>
      <trkpt lat="47.1942" lon="0.09521">
        <ele>84</ele>
        <time>2022-01-07T23:06:22Z</time>
      </trkpt>
      <trkpt lat="47.19423" lon="0.09565">
        <ele>81</ele>
        <time>2022-01-07T23:06:46Z</time>
      </trkpt>
      <trkpt lat="47.19435" lon="0.09606">
        <ele>73</ele>
        <time>2022-01-07T23:07:11Z</time>
      </trkpt>
      <trkpt lat="47.19421" lon="0.09648">
        <ele>69</ele>
        <time>2022-01-07T23:07:36Z</time>
      </trkpt>
      <trkpt lat="47.19361" lon="0.09718">
        <ele>70</ele>
        <time>2022-01-07T23:08:37Z</time>
      </trkpt>
      <trkpt lat="47.19342" lon="0.09757">
        <ele>70</ele>
        <time>2022-01-07T23:09:03Z</time>
      </trkpt>
      <trkpt lat="47.19282" lon="0.09837">
        <ele>70</ele>
        <time>2022-01-07T23:10:08Z</time>
      </trkpt>
      <trkpt lat="47.19248" lon="0.09888">
        <ele>70</ele>
        <time>2022-01-07T23:10:47Z</time>
      </trkpt>
      <trkpt lat="47.19242" lon="0.09915">
        <ele>67</ele>
        <time>2022-01-07T23:11:03Z</time>
      </trkpt>
      <trkpt lat="47.19225" lon="0.09943">
        <ele>66</ele>
        <time>2022-01-07T23:11:23Z</time>
      </trkpt>
      <trkpt lat="47.19155" lon="0.09955">
        <ele>75</ele>
        <time>2022-01-07T23:12:19Z</time>
      </trkpt>
      <trkpt lat="47.19184" lon="0.09986">
        <ele>69</ele>
        <time>2022-01-07T23:12:48Z</time>
      </trkpt>
      <trkpt lat="47.19111" lon="0.09889">
        <ele>78</ele>
        <time>2022-01-07T23:14:07Z</time>
      </trkpt>
      <trkpt lat="47.19006" lon="0.10065">
        <ele>72</ele>
        <time>2022-01-07T23:16:14Z</time>
      </trkpt>
      <trkpt lat="47.19026" lon="0.10111">
        <ele>72</ele>
        <time>2022-01-07T23:16:44Z</time>
      </trkpt>
      <trkpt lat="47.19021" lon="0.10178">
        <ele>70</ele>
        <time>2022-01-07T23:17:21Z</time>
      </trkpt>
      <trkpt lat="47.19034" lon="0.10176">
        <ele>70</ele>
        <time>2022-01-07T23:17:31Z</time>
      </trkpt>
      <trkpt lat="47.18994" lon="0.10232">
        <ele>67</ele>
        <time>2022-01-07T23:18:15Z</time>
      </trkpt>
      <trkpt lat="47.18973" lon="0.10256">
        <ele>66</ele>
        <time>2022-01-07T23:18:37Z</time>
      </trkpt>
      <trkpt lat="47.18979" lon="0.10263">
        <ele>65</ele>
        <time>2022-01-07T23:18:43Z</time>
      </trkpt>
      <trkpt lat="47.19023" lon="0.10232">
        <ele>65</ele>
        <time>2022-01-07T23:19:22Z</time>
      </trkpt>
      <trkpt lat="47.19049" lon="0.10209">
        <ele>65</ele>
        <time>2022-01-07T23:19:46Z</time>
      </trkpt>
      <trkpt lat="47.19075" lon="0.10174">
        <ele>69</ele>
        <time>2022-01-07T23:20:14Z</time>
      </trkpt>
      <trkpt lat="47.19079" lon="0.10149">
        <ele>71</ele>
        <time>2022-01-07T23:20:28Z</time>
      </trkpt>
      <trkpt lat="47.19086" lon="0.10134">
        <ele>72</ele>
        <time>2022-01-07T23:20:38Z</time>
      </trkpt>
      <trkpt lat="47.19138" lon="0.10103">
        <ele>65</ele>
        <time>2022-01-07T23:21:23Z</time>
      </trkpt>
      <trkpt lat="47.19207" lon="0.10078">
        <ele>54</ele>
        <time>2022-01-07T23:22:20Z</time>
      </trkpt>
      <trkpt lat="47.1925" lon="0.10044">
        <ele>49</ele>
        <time>2022-01-07T23:22:59Z</time>
      </trkpt>
      <trkpt lat="47.19259" lon="0.10044">
        <ele>48</ele>
        <time>2022-01-07T23:23:06Z</time>
      </trkpt>
      <trkpt lat="47.19264" lon="0.10057">
        <ele>46</ele>
        <time>2022-01-07T23:23:15Z</time>
      </trkpt>
      <trkpt lat="47.19242" lon="0.10147">
        <ele>41</ele>
        <time>2022-01-07T23:24:07Z</time>
      </trkpt>
      <trkpt lat="47.19249" lon="0.10166">
        <ele>38</ele>
        <time>2022-01-07T23:24:18Z</time>
      </trkpt>
      <trkpt lat="47.19257" lon="0.10163">
        <ele>38</ele>
        <time>2022-01-07T23:24:25Z</time>
      </trkpt>
      <trkpt lat="47.19304" lon="0.10102">
        <ele>37</ele>
        <time>2022-01-07T23:25:15Z</time>
      </trkpt>
      <trkpt lat="47.19367" lon="0.10038">
        <ele>36</ele>
        <time>2022-01-07T23:26:16Z</time>
      </trkpt>
      <trkpt lat="47.19401" lon="0.10001">
        <ele>34</ele>
        <time>2022-01-07T23:26:50Z</time>
      </trkpt>
      <trkpt lat="47.1941" lon="0.0999">
        <ele>34</ele>
        <time>2022-01-07T23:27:00Z</time>
      </trkpt>
      <trkpt lat="47.19423" lon="0.09976">
        <ele>34</ele>
        <time>2022-01-07T23:27:13Z</time>
      </trkpt>
      <trkpt lat="47.19431" lon="0.09967">
        <ele>34</ele>
        <time>2022-01-07T23:27:21Z</time>
      </trkpt>
      <trkpt lat="47.19437" lon="0.09962">
        <ele>34</ele>
        <time>2022-01-07T23:27:26Z</time>
      </trkpt>
      <trkpt lat="47.19486" lon="0.09937">
        <ele>32</ele>
        <time>2022-01-07T23:28:08Z</time>
      </trkpt>
      <trkpt lat="47.1954" lon="0.09904">
        <ele>30</ele>
        <time>2022-01-07T23:28:54Z</time>
      </trkpt>
      <trkpt lat="47.19607" lon="0.09861">
        <ele>30</ele>
        <time>2022-01-07T23:29:53Z</time>
      </trkpt>
      <trkpt lat="47.19665" lon="0.09816">
        <ele>32</ele>
        <time>2022-01-07T23:30:45Z</time>
      </trkpt>
      <trkpt lat="47.19719" lon="0.09768">
        <ele>32</ele>
        <time>2022-01-07T23:31:36Z</time>
      </trkpt>
      <trkpt lat="47.19795" lon="0.09681">
        <ele>32</ele>
        <time>2022-01-07T23:32:53Z</time>
      </trkpt>
      <trkpt lat="47.19871" lon="0.09589">
        <ele>33</ele>
        <time>2022-01-07T23:34:12Z</time>
      </trkpt>
      <trkpt lat="47.19876" lon="0.09572">
        <ele>33</ele>
        <time>2022-01-07T23:34:22Z</time>
      </trkpt>
      <trkpt lat="47.19896" lon="0.09558">
        <ele>33</ele>
        <time>2022-01-07T23:34:40Z</time>
      </trkpt>
      <trkpt lat="47.1995" lon="0.09486">
        <ele>33</ele>
        <time>2022-01-07T23:35:38Z</time>
      </trkpt>
      <trkpt lat="47.20033" lon="0.09351">
        <ele>31</ele>
        <time>2022-01-07T23:37:17Z</time>
      </trkpt>
      <trkpt lat="47.20117" lon="0.09215">
        <ele>31</ele>
        <time>2022-01-07T23:38:57Z</time>
      </trkpt>
      <trkpt lat="47.20183" lon="0.09134">
        <ele>33</ele>
        <time>2022-01-07T23:40:06Z</time>
      </trkpt>
      <trkpt lat="47.20244" lon="0.09017">
        <ele>36</ele>
        <time>2022-01-07T23:41:26Z</time>
      </trkpt>
      <trkpt lat="47.20304" lon="0.08895">
        <ele>36</ele>
        <time>2022-01-07T23:42:48Z</time>
      </trkpt>
      <trkpt lat="47.20358" lon="0.08776">
        <ele>36</ele>
        <time>2022-01-07T23:44:06Z</time>
      </trkpt>
      <trkpt lat="47.20418" lon="0.08642">
        <ele>35</ele>
        <time>2022-01-07T23:45:33Z</time>
      </trkpt>
      <trkpt lat="47.20492" lon="0.08506">
        <ele>33</ele>
        <time>2022-01-07T23:47:08Z</time>
      </trkpt>
      <trkpt lat="47.20567" lon="0.0836">
        <ele>36</ele>
        <time>2022-01-07T23:48:48Z</time>
      </trkpt>
      <trkpt lat="47.20607" lon="0.08287">
        <ele>37</ele>
        <time>2022-01-07T23:49:39Z</time>
      </trkpt>
      <trkpt lat="47.20685" lon="0.08182">
        <ele>34</ele>
        <time>2022-01-07T23:51:03Z</time>
      </trkpt>
      <trkpt lat="47.20703" lon="0.08157">
        <ele>34</ele>
        <time>2022-01-07T23:51:23Z</time>
      </trkpt>
      <trkpt lat="47.20717" lon="0.08118">
        <ele>35</ele>
        <time>2022-01-07T23:51:47Z</time>
      </trkpt>
      <trkpt lat="47.207" lon="0.08137">
        <ele>36</ele>
        <time>2022-01-07T23:52:04Z</time>
      </trkpt>
      <trkpt lat="47.20699" lon="0.08124">
        <ele>37</ele>
        <time>2022-01-07T23:52:11Z</time>
      </trkpt>
      <trkpt lat="47.20699" lon="0.08106">
        <ele>38</ele>
        <time>2022-01-07T23:52:21Z</time>
      </trkpt>
      <trkpt lat="47.2077" lon="0.08004">
        <ele>38</ele>
        <time>2022-01-07T23:53:40Z</time>
      </trkpt>
      <trkpt lat="47.20849" lon="0.07899">
        <ele>40</ele>
        <time>2022-01-07T23:55:06Z</time>
      </trkpt>
      <trkpt lat="47.20906" lon="0.07827">
        <ele>38</ele>
        <time>2022-01-07T23:56:06Z</time>
      </trkpt>
      <trkpt lat="47.20923" lon="0.07831">
        <ele>35</ele>
        <time>2022-01-07T23:56:20Z</time>
      </trkpt>
      <trkpt lat="47.2109" lon="0.08087">
        <ele>28</ele>
        <time>2022-01-07T23:59:33Z</time>
      </trkpt>
      <trkpt lat="47.21243" lon="0.08333">
        <ele>35</ele>
        <time>2022-01-08T00:02:34Z</time>
      </trkpt>
      <trkpt lat="47.21275" lon="0.08381">
        <ele>35</ele>
        <time>2022-01-08T00:03:11Z</time>
      </trkpt>
      <trkpt lat="47.2131" lon="0.08242">
        <ele>39</ele>
        <time>2022-01-08T00:04:31Z</time>
      </trkpt>
      <trkpt lat="47.21227" lon="0.08013">
        <ele>32</ele>
        <time>2022-01-08T00:06:52Z</time>
      </trkpt>
      <trkpt lat="47.21202" lon="0.07971">
        <ele>30</ele>
        <time>2022-01-08T00:07:23Z</time>
      </trkpt>
      <trkpt lat="47.21157" lon="0.07968">
        <ele>29</ele>
        <time>2022-01-08T00:07:59Z</time>
      </trkpt>
      <trkpt lat="47.21181" lon="0.07912">
        <ele>28</ele>
        <time>2022-01-08T00:08:35Z</time>
      </trkpt>
      <trkpt lat="47.21204" lon="0.07961">
        <ele>30</ele>
        <time>2022-01-08T00:09:07Z</time>
      </trkpt>
      <trkpt lat="47.21215" lon="0.07989">
        <ele>31</ele>
        <time>2022-01-08T00:09:25Z</time>
      </trkpt>
      <trkpt lat="47.21161" lon="0.08056">
        <ele>30</ele>
        <time>2022-01-08T00:10:21Z</time>
      </trkpt>
      <trkpt lat="47.21051" lon="0.08259">
        <ele>30</ele>
        <time>2022-01-08T00:12:43Z</time>
      </trkpt>
      <trkpt lat="47.21019" lon="0.08337">
        <ele>28</ele>
        <time>2022-01-08T00:13:32Z</time>
      </trkpt>
      <trkpt lat="47.2099" lon="0.08377">
        <ele>28</ele>
        <time>2022-01-08T00:14:04Z</time>
      </trkpt>
      <trkpt lat="47.2095" lon="0.0846">
        <ele>29</ele>
        <time>2022-01-08T00:14:59Z</time>
      </trkpt>
      <trkpt lat="47.20887" lon="0.08666">
        <ele>31</ele>
        <time>2022-01-08T00:17:02Z</time>
      </trkpt>
      <trkpt lat="47.2082" lon="0.0892">
        <ele>31</ele>
        <time>2022-01-08T00:19:30Z</time>
      </trkpt>
      <trkpt lat="47.20776" lon="0.09038">
        <ele>30</ele>
        <time>2022-01-08T00:20:44Z</time>
      </trkpt>
      <trkpt lat="47.20692" lon="0.09245">
        <ele>30</ele>
        <time>2022-01-08T00:22:55Z</time>
      </trkpt>
      <trkpt lat="47.20604" lon="0.09453">
        <ele>30</ele>
        <time>2022-01-08T00:25:08Z</time>
      </trkpt>
      <trkpt lat="47.20591" lon="0.09519">
        <ele>32</ele>
        <time>2022-01-08T00:25:45Z</time>
      </trkpt>
      <trkpt lat="47.2058" lon="0.09549">
        <ele>33</ele>
        <time>2022-01-08T00:26:04Z</time>
      </trkpt>
      <trkpt lat="47.20574" lon="0.09557">
        <ele>33</ele>
        <time>2022-01-08T00:26:10Z</time>
      </trkpt>
      <trkpt lat="47.20565" lon="0.09558">
        <ele>33</ele>
        <time>2022-01-08T00:26:18Z</time>
      </trkpt>
      <trkpt lat="47.20567" lon="0.09531">
        <ele>33</ele>
        <time>2022-01-08T00:26:32Z</time>
      </trkpt>
      <trkpt lat="47.20504" lon="0.09475">
        <ele>33</ele>
        <time>2022-01-08T00:27:31Z</time>
      </trkpt>
      <trkpt lat="47.20473" lon="0.09456">
        <ele>33</ele>
        <time>2022-01-08T00:27:58Z</time>
      </trkpt>
      <trkpt lat="47.20419" lon="0.09448">
        <ele>33</ele>
        <time>2022-01-08T00:28:42Z</time>
      </trkpt>
      <trkpt lat="47.20338" lon="0.09534">
        <ele>30</ele>
        <time>2022-01-08T00:30:02Z</time>
      </trkpt>
      <trkpt lat="47.20345" lon="0.0955">
        <ele>31</ele>
        <time>2022-01-08T00:30:12Z</time>
      </trkpt>
      <trkpt lat="47.20341" lon="0.0959">
        <ele>32</ele>
        <time>2022-01-08T00:30:34Z</time>
      </trkpt>
      <trkpt lat="47.20318" lon="0.09618">
        <ele>32</ele>
        <time>2022-01-08T00:30:58Z</time>
      </trkpt>
      <trkpt lat="47.20238" lon="0.09785">
        <ele>32</ele>
        <time>2022-01-08T00:32:49Z</time>
      </trkpt>
      <trkpt lat="47.20192" lon="0.0973">
        <ele>31</ele>
        <time>2022-01-08T00:33:37Z</time>
      </trkpt>
      <trkpt lat="47.20156" lon="0.09679">
        <ele>30</ele>
        <time>2022-01-08T00:34:17Z</time>
      </trkpt>
      <trkpt lat="47.20095" lon="0.09698">
        <ele>29</ele>
        <time>2022-01-08T00:35:06Z</time>
      </trkpt>
      <trkpt lat="47.19997" lon="0.09753">
        <ele>32</ele>
        <time>2022-01-08T00:36:30Z</time>
      </trkpt>
      <trkpt lat="47.19957" lon="0.09775">
        <ele>32</ele>
        <time>2022-01-08T00:37:05Z</time>
      </trkpt>
      <trkpt lat="47.19936" lon="0.09801">
        <ele>32</ele>
        <time>2022-01-08T00:37:27Z</time>
      </trkpt>
      <trkpt lat="47.19924" lon="0.09823">
        <ele>31</ele>
        <time>2022-01-08T00:37:42Z</time>
      </trkpt>
      <trkpt lat="47.19868" lon="0.09876">
        <ele>30</ele>
        <time>2022-01-08T00:38:35Z</time>
      </trkpt>
      <trkpt lat="47.19862" lon="0.09944">
        <ele>29</ele>
        <time>2022-01-08T00:39:13Z</time>
      </trkpt>
      <trkpt lat="47.19856" lon="0.09963">
        <ele>29</ele>
        <time>2022-01-08T00:39:24Z</time>
      </trkpt>
      <trkpt lat="47.19836" lon="0.09992">
        <ele>29</ele>
        <time>2022-01-08T00:39:46Z</time>
      </trkpt>
      <trkpt lat="47.19833" lon="0.10065">
        <ele>31</ele>
        <time>2022-01-08T00:40:26Z</time>
      </trkpt>
      <trkpt lat="47.19866" lon="0.10136">
        <ele>33</ele>
        <time>2022-01-08T00:41:13Z</time>
      </trkpt>
      <trkpt lat="47.19887" lon="0.10164">
        <ele>33</ele>
        <time>2022-01-08T00:41:36Z</time>
      </trkpt>
      <trkpt lat="47.19955" lon="0.10117">
        <ele>34</ele>
        <time>2022-01-08T00:42:36Z</time>
      </trkpt>
      <trkpt lat="47.20009" lon="0.10114">
        <ele>35</ele>
        <time>2022-01-08T00:43:19Z</time>
      </trkpt>
      <trkpt lat="47.20058" lon="0.10136">
        <ele>34</ele>
        <time>2022-01-08T00:44:00Z</time>
      </trkpt>
      <trkpt lat="47.20157" lon="0.1023">
        <ele>34</ele>
        <time>2022-01-08T00:45:35Z</time>
      </trkpt>
      <trkpt lat="47.2027" lon="0.10435">
        <ele>37</ele>
        <time>2022-01-08T00:47:58Z</time>
      </trkpt>
      <trkpt lat="47.20383" lon="0.10566">
        <ele>32</ele>
        <time>2022-01-08T00:49:53Z</time>
      </trkpt>
      <trkpt lat="47.20469" lon="0.10662">
        <ele>32</ele>
        <time>2022-01-08T00:51:20Z</time>
      </trkpt>
      <trkpt lat="47.20501" lon="0.10728">
        <ele>32</ele>
        <time>2022-01-08T00:52:04Z</time>
      </trkpt>
      <trkpt lat="47.20633" lon="0.10485">
        <ele>30</ele>
        <time>2022-01-08T00:54:53Z</time>
      </trkpt>
      <trkpt lat="47.20712" lon="0.10344">
        <ele>31</ele>
        <time>2022-01-08T00:56:32Z</time>
      </trkpt>
      <trkpt lat="47.20847" lon="0.10195">
        <ele>30</ele>
        <time>2022-01-08T00:58:48Z</time>
      </trkpt>
      <trkpt lat="47.20959" lon="0.09941">
        <ele>27</ele>
        <time>2022-01-08T01:01:32Z</time>
      </trkpt>
      <trkpt lat="47.20986" lon="0.09941">
        <ele>27</ele>
        <time>2022-01-08T01:01:54Z</time>
      </trkpt>
      <trkpt lat="47.21039" lon="0.09785">
        <ele>30</ele>
        <time>2022-01-08T01:03:29Z</time>
      </trkpt>
      <trkpt lat="47.21059" lon="0.09772">
        <ele>30</ele>
        <time>2022-01-08T01:03:46Z</time>
      </trkpt>
      <trkpt lat="47.21228" lon="0.0981">
        <ele>35</ele>
        <time>2022-01-08T01:06:03Z</time>
      </trkpt>
      <trkpt lat="47.21388" lon="0.09852">
        <ele>35</ele>
        <time>2022-01-08T01:08:13Z</time>
      </trkpt>
      <trkpt lat="47.21415" lon="0.09859">
        <ele>36</ele>
        <time>2022-01-08T01:08:35Z</time>
      </trkpt>
      <trkpt lat="47.21627" lon="0.09905">
        <ele>33</ele>
        <time>2022-01-08T01:11:27Z</time>
      </trkpt>
      <trkpt lat="47.21658" lon="0.09934">
        <ele>32</ele>
        <time>2022-01-08T01:11:56Z</time>
      </trkpt>
      <trkpt lat="47.21676" lon="0.09936">
        <ele>31</ele>
        <time>2022-01-08T01:12:11Z</time>
      </trkpt>
      <trkpt lat="47.21668" lon="0.09909">
        <ele>31</ele>
        <time>2022-01-08T01:12:27Z</time>
      </trkpt>
      <trkpt lat="47.2185" lon="0.09871">
        <ele>32</ele>
        <time>2022-01-08T01:14:54Z</time>
      </trkpt>
      <trkpt lat="47.21853" lon="0.09859">
        <ele>32</ele>
        <time>2022-01-08T01:15:01Z</time>
      </trkpt>
      <trkpt lat="47.21904" lon="0.09876">
        <ele>30</ele>
        <time>2022-01-08T01:15:43Z</time>
      </trkpt>
      <trkpt lat="47.21936" lon="0.09985">
        <ele>32</ele>
        <time>2022-01-08T01:16:47Z</time>
      </trkpt>
      <trkpt lat="47.22005" lon="0.10131">
        <ele>33</ele>
        <time>2022-01-08T01:18:24Z</time>
      </trkpt>
      <trkpt lat="47.22083" lon="0.10309">
        <ele>32</ele>
        <time>2022-01-08T01:20:19Z</time>
      </trkpt>
      <trkpt lat="47.22157" lon="0.10504">
        <ele>31</ele>
        <time>2022-01-08T01:22:21Z</time>
      </trkpt>
      <trkpt lat="47.2223" lon="0.10704">
        <ele>29</ele>
        <time>2022-01-08T01:24:24Z</time>
      </trkpt>
      <trkpt lat="47.22242" lon="0.10749">
        <ele>28</ele>
        <time>2022-01-08T01:24:50Z</time>
      </trkpt>
      <trkpt lat="47.22244" lon="0.1078">
        <ele>29</ele>
        <time>2022-01-08T01:25:07Z</time>
      </trkpt>
      <trkpt lat="47.22282" lon="0.1085">
        <ele>29</ele>
        <time>2022-01-08T01:25:56Z</time>
      </trkpt>
      <trkpt lat="47.22364" lon="0.10975">
        <ele>30</ele>
        <time>2022-01-08T01:27:31Z</time>
      </trkpt>
      <trkpt lat="47.22437" lon="0.11081">
        <ele>30</ele>
        <time>2022-01-08T01:28:53Z</time>
      </trkpt>
      <trkpt lat="47.22467" lon="0.11167">
        <ele>30</ele>
        <time>2022-01-08T01:29:45Z</time>
      </trkpt>
      <trkpt lat="47.22432" lon="0.11207">
        <ele>33</ele>
        <time>2022-01-08T01:30:21Z</time>
      </trkpt>
      <trkpt lat="47.22398" lon="0.1125">
        <ele>34</ele>
        <time>2022-01-08T01:30:57Z</time>
      </trkpt>
      <trkpt lat="47.22369" lon="0.11283">
        <ele>33</ele>
        <time>2022-01-08T01:31:26Z</time>
      </trkpt>
      <trkpt lat="47.22365" lon="0.11294">
        <ele>33</ele>
        <time>2022-01-08T01:31:33Z</time>
      </trkpt>
      <trkpt lat="47.22354" lon="0.11297">
        <ele>33</ele>
        <time>2022-01-08T01:31:42Z</time>
      </trkpt>
      <trkpt lat="47.22315" lon="0.11413">
        <ele>33</ele>
        <time>2022-01-08T01:32:52Z</time>
      </trkpt>
      <trkpt lat="47.22336" lon="0.11577">
        <ele>33</ele>
        <time>2022-01-08T01:34:23Z</time>
      </trkpt>
      <trkpt lat="47.22391" lon="0.11525">
        <ele>33</ele>
        <time>2022-01-08T01:35:15Z</time>
      </trkpt>
      <trkpt lat="47.22471" lon="0.11675">
        <ele>34</ele>
        <time>2022-01-08T01:36:59Z</time>
      </trkpt>
      <trkpt lat="47.22598" lon="0.11587">
        <ele>31</ele>
        <time>2022-01-08T01:38:51Z</time>
      </trkpt>
      <trkpt lat="47.22655" lon="0.1191">
        <ele>34</ele>
        <time>2022-01-08T01:41:53Z</time>
      </trkpt>
      <trkpt lat="47.22749" lon="0.12402">
        <ele>36</ele>
        <time>2022-01-08T01:46:31Z</time>
      </trkpt>
      <trkpt lat="47.22662" lon="0.12508">
        <ele>33</ele>
        <time>2022-01-08T01:48:01Z</time>
      </trkpt>
      <trkpt lat="47.22634" lon="0.12473">
        <ele>32</ele>
        <time>2022-01-08T01:48:30Z</time>
      </trkpt>
      <trkpt lat="47.22511" lon="0.12625">
        <ele>32</ele>
        <time>2022-01-08T01:50:39Z</time>
      </trkpt>
    </trkseg>
  </trk>
</gpx>